Location: Laura�t
(43.9341°N, 0.2497°E)
Time: 10:17:13
(UTC+00:00)

YAOGAN 1 - Pass Details

Date: 03 March 2021
Orbit: 618 x 620 km, 97.9° (Epoch: 18 April)

Event Time Altitude Azimuth Distance (km) Brightness Sun altitude
Rises 19:13:08 0° 184° (S) 2,882 6.0 -15.7°
Reaches altitude 10° 19:15:25 10° 192° (SSW) 1,981 5.2 -16.1°
Maximum altitude 19:19:28 39° 262° (W) 936 4.0 -16.8°
Drops below altitude 10° 19:23:33 10° 332° (NNW) 1,997 5.6 -17.6°
Sets 19:25:52 0° 340° (NNW) 2,908 6.4 -18.0°
